Flag for Austria

Past Weather in Knittelfeld, Styria, Austria — Yesterday and Last 2 Weeks

Now
48 °F

Light rain. Passing clouds.


Feels Like: 48 °F
Forecast: 56 / 32 °F
Wind: 2 mph from North

Location: Zeltweg
Current Time: Oct 27, 2020 at 5:41:32 am
Latest Report: Oct 27, 2020 at 4:50 am
Visibility: 6 mi
Pressure29.74 "Hg(27.52 "Hg at 641m altitude)
Humidity: 94%
Dew Point: 46 °F
Location of KnittelfeldLocation

Past Weather in Knittelfeld — Graph

°F

Knittelfeld Temperature Yesterday

Maximum temperature yesterday: 63 °F (at 1:50 pm)
Minimum temperature yesterday: 36 °F (at 5:50 am)
Average temperature yesterday: 53 °F

High & Low Weather Summary for the Past Weeks

 TemperatureHumidityPressure
High63 °F (Oct 21, 3:20 pm)100% (Oct 12, 5:50 am)30.27 "Hg (Oct 12, 5:50 am)
Low30 °F (Oct 15, 1:50 am)38% (Oct 14, 3:20 pm)29.68 "Hg (Oct 26, 12:50 pm)
Average46 °F80%29.97 "Hg
* Reported Oct 12 4:50 am — Oct 27 3:50 am, Knittelfeld. Weather by CustomWeather, © 2020

Note: Actual official high and low records may vary slightly from our data, if they occured in-between our weather recording intervals... More about our weather records

Knittelfeld Weather History for the Previous 24 Hours

Scroll right to see more
 ConditionsComfort  
Time TempWeatherWind HumidityBarometerVisibility
3:50 am
Tue, Oct 27
46 °FLight rain. Passing clouds.3 mph93%29.74 "Hg6 mi
12:50 am46 °FPassing clouds.2 mph93%29.74 "Hg6 mi
9:50 pm
Mon, Oct 26
52 °FPassing clouds.2 mph77%29.71 "Hg6 mi
8:50 pm52 °FPassing clouds.3 mph77%29.71 "Hg6 mi
7:50 pm55 °FPassing clouds.5 mph63%29.71 "Hg6 mi
6:50 pm57 °FPassing clouds.6 mph63%29.71 "Hg12 mi
5:50 pm57 °FPassing clouds.6 mph63%29.71 "Hg12 mi
5:20 pm57 °FPassing clouds.6 mph63%29.68 "Hg12 mi
4:50 pm59 °FPartly sunny.8 mph59%29.68 "Hg19 mi
4:20 pm59 °FPartly sunny.12 mph59%29.68 "Hg19 mi
3:50 pm59 °FPartly sunny.8 mph59%29.68 "Hg19 mi
3:20 pm59 °FBroken clouds.6 mph59%29.68 "Hg19 mi
2:50 pm61 °FBroken clouds.8 mph55%29.68 "Hg19 mi
2:20 pm61 °FBroken clouds.3 mph55%29.68 "Hg19 mi
1:50 pm63 °FBroken clouds.3 mph49%29.68 "Hg19 mi
12:50 pm61 °FBroken clouds.7 mph52%29.68 "Hg19 mi
12:20 pm61 °FBroken clouds.10 mph55%29.71 "Hg19 mi
11:50 am61 °FBroken clouds.2 mph52%29.71 "Hg19 mi
11:20 am61 °FBroken clouds.3 mph52%29.71 "Hg19 mi
10:50 am61 °FBroken clouds.3 mph55%29.71 "Hg19 mi
10:20 am57 °FBroken clouds.5 mph72%29.71 "Hg19 mi
9:50 am54 °FBroken clouds.6 mph77%29.71 "Hg19 mi
9:20 am52 °FBroken clouds.6 mph82%29.71 "Hg19 mi
8:50 am48 °FPartly sunny.3 mph87%29.71 "Hg19 mi
8:20 am43 °FPartly sunny.3 mph100%29.71 "Hg19 mi
7:50 am36 °FPartly sunny.3 mph100%29.71 "Hg19 mi
6:50 am37 °FFog.3 mph100%29.71 "Hg19 mi
5:50 am36 °FFog.2 mph100%29.71 "Hg0 mi
Weather by CustomWeather, © 2020

See weather overview